Regional Weather Roundup
Issued by NWS Columbia, SC

Home | Current Version | Previous Version | Text Only | Print | Product List | Glossary On
Versions: 1 2 3 4 5 6 7 8 9 10 11 12 13 14 15 16 17 18 19 20 21 22 23 24 25 26 27 28 29 30 31 32 33 34 35 36 37 38 39 40 41 42 43 44 45 46 47 48 49 50
000
ASUS42 KCAE 200810
RWRCAE
REGIONAL WEATHER ROUNDUP
NATIONAL WEATHER SERVICE COLUMBIA SC
300 AM EST SAT DEC 20 2014

NOTE: "FAIR" INDICATES FEW OR NO CLOUDS BELOW 12,000 FEET WITH NO
SIGNIFICANT WEATHER AND/OR OBSTRUCTIONS TO VISIBILITY.

NOT ALL STATIONS ARE QUALITY CONTROLLED BY THE NATIONAL
WEATHER SERVICE. USE DATA WITH CAUTION...ESPECIALLY
DEWPOINT OBSERVATIONS.

SCZ001>056-GAZ040-063>065-077-200900-
...UPSTATE SOUTH CAROLINA...

CITY           SKY/WX    TMP DP  RH WIND       PRES   REMARKS
ANDERSON       CLOUDY    47  35  63 CALM      30.15S
LIBERTY        CLOUDY    42  32  68 MISG      30.14F
SPARTANBURG    FAIR      46  36  66 N3        30.17S
CLEMSON        LGT RAIN  48  37  65 N3        30.16S
GREENVILLE     LGT RAIN  47  33  58 NE5       30.17R
GREENWOOD      LGT RAIN  45  41  86 CALM      30.17R
GREER          LGT RAIN  46  35  65 NE5       30.15R
ROCK HILL      CLOUDY    43  33  68 CALM      30.18R
CHESTER        PTSUNNY   45  34  65 CALM      30.18R
LAURENS        FAIR      43  41  93 CALM      30.16R


...CENTRAL SOUTH CAROLINA...

CITY           SKY/WX    TMP DP  RH WIND       PRES   REMARKS
COLUMBIA APT   LGT RAIN  49  40  71 CALM      30.17R
COLUMBIA OWENS LGT RAIN  48  40  73 CALM      30.18R
DARLINGTON     CLOUDY    43  32  65 E3        30.20R
FLORENCE       CLOUDY    45  35  68 E3        30.19R
MCENTIRE ANGB  CLOUDY    46  38  73 SE2       30.17R
ORANGEBURG     LGT RAIN  49  42  77 NE5       30.16S
SUMTER SHAW    CLOUDY    45  38  75 NE2       30.16R
NEWBERRY       DRIZZLE   45  37  76 E3        30.19R
AIKEN          RAIN      46  45  93 CALM      30.18S
BARNWELL       DRIZZLE   48  46  93 E7        30.13F
CAMDEN         FAIR      45  34  65 CALM      30.19S
LANCASTER      FAIR      45  34  65 NE5       30.18R
WINNSBORO      DRIZZLE   46  34  61 E6        30.16S


...EASTERN AND COASTAL SOUTH CAROLINA...

CITY           SKY/WX    TMP DP  RH WIND       PRES   REMARKS
MYRTLE BEACH   CLOUDY    52  43  71 E7        30.19R
N MYRTLE BCH   CLOUDY    47  40  76 NE5       30.18F
CONWAY         FAIR      45  39  81 CALM      30.19R
MARION         FAIR      45  34  65 CALM      30.19S
HARTSVILLE     PTSUNNY   45  30  57 E5        30.19R
FLORENCE       CLOUDY    45  35  68 E3        30.19R
DARLINGTON     CLOUDY    43  32  65 E3        30.20R
CHARLESTON APT CLOUDY    50  44  80 N6        30.16S
MOUNT PLEASANT FAIR      52  45  76 CALM      30.15F
WALTERBORO     RAIN      48 N/A N/A CALM      30.16S
BEAUFORT       LGT RAIN  51  47  86 N3        30.15R


...EASTERN GEORGIA...

CITY           SKY/WX    TMP DP  RH WIND       PRES   REMARKS
AUGUSTA BUSH F LGT RAIN  48  46  93 N3        30.14F
AUGUSTA DANIEL LGT RAIN  51  47  86 N5        30.14F
THOMSON        CLOUDY    47  47 100 CALM      30.19S
WASHINGTON     LGT RAIN  48  48 100 NE3       30.14S
CLAXTON        CLOUDY    48  46  93 CALM      30.13S
SYLVANIA       LGT RAIN  49  49 100 CALM      30.14F
STATESBORO     DRIZZLE   49  49 100 CALM      30.13S
SAVANNAH       CLOUDY    52  49  89 NE5       30.13F


...SOUTHERN NORTH CAROLINA...

CITY           SKY/WX    TMP DP  RH WIND       PRES   REMARKS
CHARLOTTE      CLOUDY    46  25  43 E3        30.19R
MONROE         CLOUDY    43  29  57 E3        30.18R
WADESBORO      CLOUDY    39  34  83 CALM      30.20R
ROCKINGHAM     CLOUDY    43  31  63 E5        30.19S
RUTHERFORDTON  CLOUDY    42  33  70 E3        30.17F
ASHEVILLE      CLOUDY    39  29  67 CALM      30.15R

$$



USA.gov is the U.S. government's official web portal to all federal, state and local government web resources and services.